Regional Weather Roundup
Issued by NWS

Home | Current Version | Previous Version | Text Only | Print | Product List | Glossary Off
Versions: 1 2 3 4 5 6 7 8 9 10 11 12 13 14 15 16 17 18 19 20 21 22 23 24 25 26 27 28 29 30 31 32 33 34 35 36 37 38 39 40 41 42 43 44 45 46 47 48 49

000
ASUS45 KCYS 282310
RWRWY

WYOMING REGIONAL WEATHER ROUNDUP
NATIONAL WEATHER SERVICE CHEYENNE WY
400 PM MST WED JAN 28 2015

NOTE:  "FAIR" INDICATES FEW OR NO CLOUDS BELOW 12,000 FEET
WITH NO SIGNIFICANT WEATHER AND/OR OBSTRUCTIONS TO VISIBILITY.

WYZ001-290000-
YELLOWSTONE NATIONAL PARK

CITY           SKY/WX    TMP DP  RH WIND       PRES   REMARKS
LK YELLOWSTONE   N/A     33  27  78 NW5       30.27S WCI  29
W YELLOWSTONE  NOT AVBL

$$
WYZ002>013-054>058-071-098>099-290000-
NORTHERN WYOMING

CITY           SKY/WX    TMP DP  RH WIND       PRES   REMARKS
JACKSON        PTSUNNY   39  28  65 CALM      30.25S
CODY           CLOUDY    43  30  61 N7        30.22R
GREYBULL       FOG       36  36 100 SE6       30.20R VSB<1/4 WCI  31
WORLAND        CLOUDY    36  34  92 SW6       30.20R WCI  31
SHERIDAN       CLOUDY    46  30  53 NW16      30.20R
BUFFALO        MOCLDY    45  27  49 N24G36    30.18R
GILLETTE       FAIR      45  28  51 NW14      30.14R
HULETT           N/A    N/A N/A N/A MISG        N/A
NEWCASTLE      FAIR      45  27  49 NW24G32   30.09R

$$
WYZ014>020-022>026-101>103-290000-
CENTRAL WYOMING

CITY           SKY/WX    TMP DP  RH WIND       PRES   REMARKS
BIG PINEY      FAIR      41  27  57 N15       30.24R
PINEDALE       FAIR      36  30  80 NW17      30.23R WCI  25
DUBOIS         CLOUDY    37  27  65 NW9       30.20S WCI  31
LANDER         FAIR      42  32  67 SE5       30.19R
RIVERTON       CLOUDY    42  32  67 SW6       30.21R
CASPER         CLOUDY    40  38  93 S3        30.18R
DOUGLAS        CLOUDY    43  37  79 NW16      30.17R

$$
WYZ021-027>030-104>119-290000-
SOUTHERN WYOMING

CITY           SKY/WX    TMP DP  RH WIND       PRES   REMARKS
EVANSTON       CLOUDY    37  31  78 SW9       30.28S WCI  30
KEMMERER       FAIR      36  32  87 W16       30.26F WCI  26
FORT BRIDGER   FAIR      40  33  75 W15       30.30S WCI  32
ROCK SPRINGS   CLOUDY    40  30  67 W18       30.23R WCI  31
DIXON          CLOUDY    42  32  67 S6        30.26S
RAWLINS        LGT RAIN  38  31  76 W12       30.21R WCI  30
SARATOGA       CLOUDY    39  32  75 W18G25    30.22R WCI  30
LARAMIE        CLOUDY    40  26  57 W16       30.17R WCI  31
CHEYENNE       CLOUDY    47  29  49 NW29G41   30.11R
TORRINGTON     MOCLDY    47  36  65 NW17      30.11R
PINE BLUFFS    FAIR      43  34  70 N26       30.12R

$$


USA.gov is the U.S. government's official web portal to all federal, state and local government web resources and services.